AB4KN Weather Reports


Display with metric or nautical units.
time (UTC)temp
F
wind
direction
speed
MPH
gust
MPH
rain 1hr
in
rain 24hr
in
rain mn
in
humidity
%
barometer
mb
20260507193220 69 312 0.0 2.0 0.00 0.83 0.83 82 1017.5
20260507192716 69 294 0.0 0.0 0.00 0.83 0.83 83 1017.4
20260507192213 68 298 0.0 0.0 0.00 0.83 0.83 83 1017.5
20260507191709 69 293 0.0 0.0 0.00 0.83 0.83 84 1017.6
20260507191207 69 315 3.0 3.0 0.00 0.83 0.83 84 1017.4
20260507190703 69 304 1.0 2.0 0.00 0.83 0.83 84 1017.3
20260507190202 69 280 2.0 3.0 0.00 0.83 0.83 84 1017.5
20260507185700 69 97 2.0 2.0 0.00 0.83 0.83 85 1017.3
20260507185157 69 300 0.0 2.0 0.00 0.83 0.83 85 1017.1
20260507184654 69 299 0.0 0.0 0.00 0.83 0.83 86 1017.4
20260507184152 69 313 0.0 2.0 0.00 0.83 0.83 87 1017.2
20260507183648 69 303 1.0 2.0 0.00 0.83 0.83 86 1017.2
20260507183145 69 303 2.0 2.0 0.00 0.83 0.83 87 1017.5
20260507182643 69 301 0.0 2.0 0.00 0.83 0.83 88 1017.3
20260507182137 69 301 0.0 0.0 0.00 0.83 0.83 89 1017.5
20260507181634 69 300 0.0 2.0 0.00 0.83 0.83 89 1017.2
20260507181131 69 300 0.0 0.0 0.00 0.83 0.83 89 1017.2
20260507180627 69 292 1.0 2.0 0.00 0.83 0.83 89 1017.1
20260507180124 69 291 0.0 0.0 0.00 0.83 0.83 89 1017.4
20260507175620 69 291 0.0 0.0 0.00 0.83 0.83 89 1017.4
20260507175118 69 308 1.0 2.0 0.00 0.83 0.83 89 1017.5
20260507174615 69 267 0.0 2.0 0.00 0.83 0.83 89 1017.4
20260507174113 69 295 0.0 2.0 0.00 0.83 0.83 89 1017.3
20260507173610 70 298 0.0 0.0 0.00 0.83 0.83 89 1017.2
20260507173106 70 278 2.0 3.0 0.00 0.83 0.83 88 1017.3
20260507172602 70 208 4.0 5.0 0.00 0.83 0.83 87 1017.5
20260507172100 69 296 0.0 2.0 0.00 0.83 0.83 89 1017.5
20260507171554 68 206 5.0 7.0 0.00 0.83 0.83 89 1017.4
20260507171052 68 269 2.0 2.0 0.00 0.83 0.83 89 1017.4
20260507170549 68 286 0.0 0.0 0.00 0.83 0.83 89 1017.6
20260507170046 68 299 0.0 0.0 0.00 0.83 0.83 89 1017.6
20260507165541 68 297 1.0 2.0 0.00 0.83 0.83 89 1017.5
20260507165038 68 313 2.0 2.0 0.00 0.83 0.83 89 1017.5
20260507164534 68 299 1.0 2.0 0.00 0.83 0.83 89 1017.8
20260507164032 68 293 0.0 0.0 0.00 0.83 0.83 89 1017.6
20260507163529 68 293 0.0 0.0 0.00 0.83 0.83 89 1017.6
20260507163027 68 295 1.0 2.0 0.00 0.83 0.83 89 1017.5
20260507162527 68 294 2.0 2.0 0.00 0.83 0.83 89 1017.6
20260507162024 68 301 3.0 3.0 0.00 0.83 0.83 89 1017.6
20260507161520 68 301 2.0 2.0 0.00 0.83 0.83 89 1017.4
20260507161017 68 288 0.0 2.0 0.00 0.83 0.83 89 1017.7
20260507160513 67 293 0.0 2.0 0.00 0.83 0.83 89 1017.5
20260507160010 67 252 2.0 2.0 0.00 0.83 0.83 89 1017.6
20260507155505 67 296 0.0 2.0 0.00 0.83 0.83 89 1017.6
20260507155003 68 301 0.0 0.0 0.00 0.83 0.83 89 1017.3
20260507154459 67 302 0.0 0.0 0.00 0.83 0.83 89 1017.7
20260507153956 67 291 0.0 0.0 0.00 0.83 0.83 89 1017.6
20260507153453 66 225 3.0 5.0 0.00 0.83 0.83 89 1017.5
20260507152949 67 239 1.0 2.0 0.00 0.83 0.83 89 1017.5
20260507152445 66 292 0.0 0.0 0.00 0.83 0.83 89 1017.0
20260507151941 66 261 1.0 2.0 0.00 0.83 0.83 89 1017.2
20260507151438 66 288 0.0 0.0 0.00 0.83 0.83 89 1017.2
20260507150935 66 288 0.0 0.0 0.00 0.83 0.83 89 1017.2
20260507150432 65 288 0.0 0.0 0.05 0.83 0.83 89 1017.0
20260507145928 65 286 0.0 0.0 0.05 0.83 0.83 89 1017.1
20260507145424 65 287 0.0 0.0 0.00 0.82 0.82 89 1017.2
20260507144921 65 298 0.0 0.0 0.00 0.82 0.82 89 1017.0
20260507144418 66 294 0.0 0.0 0.00 0.82 0.82 89 1017.0
20260507143915 65 295 0.0 0.0 0.00 0.82 0.82 89 1017.2
20260507143412 65 295 0.0 0.0 0.00 0.82 0.82 89 1017.2
20260507142909 65 300 0.0 0.0 0.00 0.82 0.82 89 1017.0
20260507142404 65 295 0.0 0.0 0.00 0.82 0.82 89 1017.3
20260507141902 65 308 0.0 0.0 0.00 0.82 0.82 89 1017.3
20260507141358 66 300 0.0 0.0 0.00 0.82 0.82 89 1017.0
20260507140855 66 293 0.0 0.0 0.00 0.82 0.82 89 1016.9
20260507140351 66 298 0.0 0.0 0.07 0.82 0.82 89 1016.6
20260507135849 66 295 0.0 0.0 0.07 0.82 0.82 89 1016.8
20260507135346 65 305 0.0 0.0 0.07 0.82 0.82 89 1016.7
20260507134843 65 309 0.0 2.0 0.00 0.81 0.81 89 1016.8
20260507134339 65 307 0.0 0.0 0.00 0.81 0.81 89 1016.9
20260507133835 65 301 0.0 0.0 0.00 0.81 0.81 89 1017.1
20260507133331 65 299 0.0 0.0 0.00 0.81 0.81 89 1016.8
20260507132830 65 299 0.0 0.0 0.00 0.81 0.81 89 1016.7
20260507132326 65 304 0.0 0.0 0.00 0.81 0.81 89 1016.8
20260507131823 65 303 0.0 0.0 0.00 0.81 0.81 89 1016.6
20260507131320 66 302 0.0 0.0 0.00 0.81 0.81 89 1016.5
20260507130817 66 308 0.0 0.0 0.05 0.81 0.81 89 1016.6
20260507130314 66 318 0.0 0.0 0.12 0.81 0.81 89 1016.4
20260507125813 67 316 0.0 0.0 0.24 0.80 0.80 89 1016.3
20260507125310 68 333 3.0 3.0 0.28 0.79 0.79 89 1015.9
20260507124807 68 258 0.0 0.0 0.12 0.76 0.76 89 1015.9
20260507124303 68 304 0.0 0.0 0.07 0.74 0.74 89 1016.1
20260507123802 68 293 0.0 0.0 0.07 0.74 0.74 89 1015.7
20260507123259 68 259 0.0 0.0 0.00 0.73 0.73 89 1015.7
20260507122754 68 283 0.0 0.0 0.00 0.73 0.73 89 1015.8
20260507122250 68 283 0.0 0.0 0.00 0.73 0.73 89 1015.4
20260507121746 68 270 0.0 0.0 0.00 0.73 0.73 89 1015.4
20260507121242 68 269 1.0 2.0 0.00 0.73 0.73 89 1015.5
20260507120738 68 256 3.0 5.0 0.00 0.73 0.73 89 1015.3
20260507120235 68 262 2.0 3.0 0.05 0.73 0.73 89 1015.2
20260507115731 68 269 1.0 2.0 0.12 0.73 0.73 89 1015.0
20260507115228 68 262 3.0 3.0 0.26 0.72 0.72 89 1014.9
20260507114723 68 237 3.0 5.0 0.19 0.71 0.71 89 1015.1
20260507114221 68 244 4.0 5.0 0.05 0.68 0.68 89 1015.2
20260507113718 68 263 2.0 3.0 0.05 0.68 0.68 89 1015.1
20260507113215 68 275 0.0 0.0 0.00 0.67 0.67 89 1014.8
20260507112712 68 250 1.0 2.0 0.00 0.67 0.67 89 1015.0
20260507112209 68 232 2.0 3.0 0.00 0.67 0.67 89 1014.8
20260507111707 68 183 3.0 5.0 0.00 0.67 0.67 89 1014.5
20260507111204 68 251 0.0 2.0 0.00 0.67 0.67 89 1014.7
20260507110659 68 278 1.0 2.0 0.00 0.67 0.67 89 1014.5
20260507110156 68 269 0.0 0.0 0.07 0.67 0.67 89 1014.6
20260507105653 68 312 0.0 0.0 0.07 0.67 0.67 89 1014.5
20260507105149 68 204 2.0 3.0 0.00 0.66 0.66 89 1014.3
20260507104647 68 240 0.0 0.0 0.05 0.66 0.66 89 1014.4
20260507104143 68 271 0.0 0.0 0.12 0.66 0.66 89 1014.7
20260507103639 68 306 2.0 3.0 0.07 0.65 0.65 89 1015.0
20260507103136 68 180 1.0 3.0 0.17 0.64 0.64 89 1014.6
20260507102632 68 250 0.0 0.0 0.17 0.64 0.64 89 1014.7
20260507102128 68 203 4.0 7.0 0.00 0.61 0.61 89 1015.0
20260507101624 68 230 2.0 3.0 0.00 0.61 0.61 89 1015.0
20260507101120 68 259 0.0 2.0 0.00 0.61 0.61 89 1014.8
20260507100618 68 238 0.0 0.0 0.00 0.61 0.61 89 1014.9
20260507100116 68 264 0.0 0.0 0.00 0.61 0.61 89 1014.9
20260507095614 68 275 0.0 0.0 0.00 0.61 0.61 89 1015.0
20260507095110 68 236 0.0 0.0 0.00 0.61 0.61 89 1015.1
20260507094606 68 287 0.0 0.0 0.00 0.61 0.61 89 1015.1
20260507094103 68 248 0.0 0.0 0.00 0.61 0.61 89 1015.1
20260507093601 68 143 0.0 0.0 0.07 0.61 0.61 89 1014.9
20260507093059 67 166 3.0 5.0 0.14 0.61 0.61 89 1014.8
20260507092555 67 265 3.0 3.0 0.19 0.60 0.60 89 1014.5
20260507092052 67 288 0.0 0.0 0.17 0.59 0.59 89 1014.8
20260507091549 67 190 3.0 3.0 0.12 0.57 0.57 89 1014.8
20260507091045 67 263 0.0 0.0 0.12 0.56 0.56 89 1015.4
20260507090541 67 274 0.0 0.0 0.19 0.56 0.56 89 1016.0
20260507090038 67 266 1.0 3.0 0.28 0.55 0.55 89 1014.5
20260507085535 67 298 0.0 0.0 0.24 0.53 0.53 89 1014.2
20260507085032 67 174 3.0 3.0 0.07 0.50 0.50 89 1015.9
20260507084528 67 283 0.0 0.0 0.19 0.49 0.49 89 1016.1
20260507084026 67 281 0.0 0.0 0.19 0.49 0.49 89 1016.1
20260507083521 67 227 1.0 2.0 0.00 0.46 0.46 89 1016.0
20260507083019 67 249 0.0 0.0 0.00 0.46 0.46 89 1016.3
20260507082515 67 267 0.0 0.0 0.00 0.46 0.46 89 1016.2
20260507082011 67 269 0.0 0.0 0.00 0.46 0.46 89 1016.2
20260507081508 67 270 0.0 0.0 0.00 0.46 0.46 89 1016.1
20260507081005 67 238 0.0 0.0 0.00 0.46 0.46 89 1015.8
20260507080500 67 264 0.0 0.0 0.00 0.46 0.46 89 1015.9
20260507075956 67 279 0.0 0.0 0.05 0.46 0.46 89 1015.8
20260507075452 67 280 0.0 0.0 0.05 0.46 0.46 89 1016.1
20260507074949 67 279 0.0 0.0 0.00 0.45 0.45 89 1016.2
20260507074446 67 285 0.0 0.0 0.12 0.45 0.45 89 1016.2
20260507073944 67 275 0.0 0.0 0.31 0.45 0.45 89 1016.3
20260507073440 67 210 2.0 3.0 0.24 0.43 0.43 89 1016.3
20260507072937 67 272 1.0 2.0 0.19 0.41 0.41 89 1016.4
20260507072434 67 196 2.0 2.0 0.07 0.39 0.39 89 1016.4
20260507071932 67 212 2.0 3.0 0.00 0.38 0.38 89 1016.6
20260507071428 67 206 1.0 2.0 0.00 0.38 0.38 89 1016.4
20260507070925 67 244 3.0 5.0 0.00 0.38 0.38 89 1016.1
20260507070423 67 270 0.0 0.0 0.00 0.38 0.38 89 1016.2
20260507065919 67 125 0.0 0.0 0.00 0.38 0.38 89 1016.2
20260507065416 67 207 0.0 0.0 0.00 0.38 0.38 89 1016.0
20260507064913 67 269 0.0 0.0 0.05 0.38 0.38 89 1016.2
20260507064411 67 266 0.0 0.0 0.17 0.38 0.38 89 1015.4
20260507063909 67 164 0.0 2.0 0.38 0.37 0.37 89 1015.4
20260507063406 67 262 1.0 2.0 0.31 0.35 0.35 89 1015.9
20260507062903 67 183 2.0 2.0 0.05 0.31 0.31 89 1015.9
20260507062359 67 231 0.0 0.0 0.07 0.30 0.30 89 1016.1
20260507061857 67 256 1.0 2.0 0.12 0.30 0.30 89 1016.2
20260507061355 67 254 0.0 0.0 0.17 0.29 0.29 89 1016.2
20260507060853 68 299 3.0 5.0 0.12 0.28 0.28 89 1016.1
20260507060349 68 152 3.0 3.0 0.00 0.26 0.26 89 1017.1
20260507055846 68 193 2.0 3.0 0.07 0.26 0.26 89 1017.1
20260507055341 68 141 2.0 2.0 0.12 0.26 0.26 89 1017.4
20260507054839 68 154 0.0 2.0 0.12 0.25 0.25 89 1017.2
20260507054334 68 249 0.0 0.0 0.12 0.24 0.24 89 1017.2
20260507053832 68 277 0.0 2.0 0.19 0.24 0.24 89 1017.0
20260507053329 68 188 2.0 3.0 0.14 0.22 0.22 89 1016.7
20260507052828 68 209 2.0 3.0 0.12 0.21 0.21 89 1016.9
20260507052324 68 136 2.0 3.0 0.17 0.20 0.20 89 1016.7
20260507051822 68 110 3.0 3.0 0.31 0.19 0.19 89 1017.2
20260507051320 68 5 1.0 2.0 0.35 0.17 0.17 89 1017.7
20260507050816 68 291 0.0 2.0 0.38 0.15 0.15 89 1018.5
20260507050313 68 228 2.0 2.0 0.26 0.11 0.11 89 1019.5
20260507045810 68 231 3.0 5.0 0.17 0.09 0.09 89 1019.0
20260507045307 68 224 0.0 2.0 0.17 0.07 0.07 89 1018.6
20260507044803 68 243 0.0 2.0 0.19 0.06 0.06 89 1018.5
20260507044300 68 250 0.0 0.0 0.12 0.05 0.05 89 1017.9
20260507043756 68 251 0.0 0.0 0.12 0.04 0.04 89 1017.9
20260507043253 68 208 0.0 2.0 0.05 0.03 0.03 89 1017.9
20260507042749 68 269 0.0 0.0 0.07 0.02 0.02 89 1017.7
20260507042244 68 243 0.0 0.0 0.07 0.02 0.02 89 1017.8
20260507041742 68 192 0.0 0.0 0.00 0.01 0.01 89 1017.8
20260507041238 68 270 0.0 0.0 0.05 0.01 0.01 89 1018.2
20260507040735 68 270 0.0 2.0 0.05 0.01 0.01 89 1018.0
20260507040231 68 228 0.0 0.0 0.00 0.00 0.00 89 1018.3
20260507035727 68 255 0.0 2.0 0.00 0.40 0.40 89 1018.5
20260507035223 68 262 0.0 0.0 0.00 0.40 0.40 89 1018.5
20260507034721 68 255 0.0 0.0 0.00 0.40 0.40 89 1018.3
20260507034217 68 257 0.0 0.0 0.00 0.40 0.40 89 1017.6
20260507033716 69 268 0.0 0.0 0.00 0.40 0.40 89 1017.9
20260507033213 69 262 0.0 0.0 0.07 0.40 0.40 89 1018.0
20260507032710 69 234 0.0 0.0 0.07 0.40 0.40 89 1017.6
20260507032206 69 266 0.0 0.0 0.00 0.39 0.39 89 1017.8
20260507031703 69 271 0.0 0.0 0.00 0.39 0.39 89 1017.7
20260507031200 69 251 0.0 2.0 0.12 0.39 0.39 89 1017.7
20260507030656 69 263 0.0 0.0 0.90 0.39 0.39 89 1017.8
20260507030154 69 256 0.0 0.0 1.39 0.38 0.38 89 1017.9
20260507025651 69 266 0.0 0.0 0.78 0.28 0.28 89 1018.3
20260507025148 69 252 0.0 0.0 0.00 0.15 0.15 89 1019.5
20260507024646 70 192 1.0 3.0 0.05 0.15 0.15 89 1018.8
20260507024143 70 234 1.0 3.0 0.05 0.15 0.15 89 1019.0
20260507023638 70 236 0.0 0.0 0.07 0.14 0.14 89 1018.7
20260507023136 70 153 1.0 5.0 0.26 0.14 0.14 89 1018.7
20260507022633 70 284 0.0 0.0 0.42 0.14 0.14 89 1018.4
20260507022128 70 228 0.0 0.0 0.12 0.09 0.09 89 1019.0
20260507021625 70 271 0.0 0.0 0.00 0.07 0.07 89 1018.8
20260507021120 70 288 0.0 0.0 0.00 0.07 0.07 89 1018.0
20260507020619 70 287 0.0 0.0 0.00 0.07 0.07 89 1017.7
20260507020115 70 322 0.0 0.0 0.07 0.07 0.07 89 1017.5
20260507015614 71 277 0.0 0.0 0.19 0.07 0.07 89 1017.5
20260507015111 71 280 0.0 0.0 0.24 0.06 0.06 89 1017.7
20260507014607 71 275 0.0 0.0 0.12 0.04 0.04 89 1017.8
20260507014103 71 288 0.0 0.0 0.00 0.02 0.02 89 1018.1
20260507013559 71 290 0.0 0.0 0.05 0.02 0.02 89 1017.8
20260507013057 71 290 0.0 0.0 0.05 0.02 0.02 88 1018.0
20260507012554 71 290 0.0 0.0 0.00 0.01 0.01 88 1018.0
20260507012050 71 290 0.0 0.0 0.00 0.01 0.01 87 1018.2
20260507011548 72 290 0.0 0.0 0.07 0.01 0.01 86 1017.8
20260507011044 72 290 0.0 0.0 0.07 0.01 0.01 85 1017.9
20260507010539 73 284 0.0 0.0 0.00 0.00 0.00 84 1018.3
20260507010035 74 284 0.0 0.0 0.00 0.00 0.00 82 1018.2
20260507005533 75 283 0.0 0.0 0.00 0.00 0.00 80 1017.9
20260507005029 76 278 0.0 0.0 0.00 0.00 0.00 76 1018.1
20260507004526 76 264 0.0 0.0 0.00 0.00 0.00 74 1018.1
20260507004023 76 142 5.0 7.0 0.00 0.00 0.00 74 1018.4
20260507003519 76 243 5.0 9.0 0.00 0.00 0.00 74 1018.1
20260507003014 76 267 3.0 3.0 0.00 0.00 0.00 74 1018.0
20260507002511 76 193 3.0 3.0 0.00 0.00 0.00 74 1018.1
20260507002007 76 263 0.0 0.0 0.00 0.00 0.00 74 1018.0
20260507001503 77 176 3.0 3.0 0.00 0.00 0.00 73 1018.0
20260507001001 77 187 0.0 3.0 0.00 0.00 0.00 73 1018.0
20260507000457 77 146 3.0 3.0 0.00 0.00 0.00 73 1018.0
20260506235952 77 185 0.0 0.0 0.00 0.00 0.00 73 1017.9
20260506235450 77 264 0.0 0.0 0.00 0.00 0.00 73 1018.2
20260506234946 77 196 4.0 5.0 0.00 0.00 0.00 73 1018.1
20260506234444 77 252 2.0 3.0 0.00 0.00 0.00 73 1017.7
20260506233941 77 259 0.0 2.0 0.00 0.00 0.00 72 1017.5
20260506233437 77 205 2.0 2.0 0.00 0.00 0.00 73 1017.3
20260506232934 77 215 2.0 3.0 0.00 0.00 0.00 73 1017.2
20260506232430 77 266 1.0 2.0 0.00 0.00 0.00 72 1017.4
20260506231926 77 210 3.0 5.0 0.00 0.00 0.00 71 1017.4
20260506231423 77 267 0.0 0.0 0.00 0.00 0.00 71 1017.7
20260506230921 78 261 1.0 2.0 0.00 0.00 0.00 71 1017.7
20260506230417 78 268 3.0 5.0 0.00 0.00 0.00 71 1017.3
20260506225914 78 254 2.0 2.0 0.00 0.00 0.00 71 1017.7
20260506225411 78 266 0.0 2.0 0.00 0.00 0.00 71 1017.7
20260506224908 78 201 0.0 0.0 0.00 0.00 0.00 70 1017.8
20260506224405 78 259 0.0 0.0 0.00 0.00 0.00 70 1017.8
20260506223901 78 263 0.0 0.0 0.00 0.00 0.00 70 1017.7
20260506223356 78 257 0.0 0.0 0.00 0.00 0.00 69 1017.7
20260506222854 78 253 4.0 5.0 0.00 0.00 0.00 69 1017.3
20260506222350 78 257 3.0 3.0 0.00 0.00 0.00 70 1017.5
20260506221848 78 249 2.0 2.0 0.00 0.00 0.00 69 1017.6
20260506221345 78 218 3.0 3.0 0.00 0.00 0.00 69 1017.8
20260506220842 78 200 3.0 3.0 0.00 0.00 0.00 69 1017.8
20260506220338 78 289 0.0 0.0 0.00 0.00 0.00 70 1017.7
20260506215835 78 245 2.0 2.0 0.00 0.00 0.00 70 1017.5
20260506215330 79 215 5.0 7.0 0.00 0.00 0.00 69 1017.5
20260506214827 79 232 2.0 2.0 0.00 0.00 0.00 68 1017.5
20260506214323 80 159 3.0 3.0 0.00 0.00 0.00 68 1017.3
20260506213822 80 152 5.0 5.0 0.00 0.00 0.00 67 1017.3
20260506213319 79 235 0.0 0.0 0.00 0.00 0.00 68 1017.3
20260506212816 80 193 4.0 5.0 0.00 0.00 0.00 67 1017.5
20260506212312 80 234 2.0 3.0 0.00 0.00 0.00 68 1017.7
20260506211807 80 275 5.0 7.0 0.00 0.00 0.00 66 1017.6
20260506211303 80 253 5.0 9.0 0.00 0.00 0.00 66 1017.8
20260506210801 80 290 1.0 2.0 0.00 0.00 0.00 66 1017.6
20260506210257 79 261 3.0 3.0 0.00 0.00 0.00 68 1017.7
20260506205754 79 234 4.0 5.0 0.00 0.00 0.00 68 1017.7
20260506205250 79 203 3.0 3.0 0.00 0.00 0.00 68 1017.7
20260506204747 79 263 2.0 2.0 0.00 0.00 0.00 68 1018.0
20260506204245 79 252 4.0 7.0 0.00 0.00 0.00 67 1018.2
20260506203742 79 261 1.0 2.0 0.00 0.00 0.00 67 1018.4
20260506203239 80 249 3.0 3.0 0.00 0.00 0.00 65 1018.4
20260506202736 80 265 5.0 7.0 0.00 0.00 0.00 66 1018.4
20260506202233 80 280 3.0 5.0 0.00 0.00 0.00 65 1018.5
20260506201730 80 241 3.0 3.0 0.00 0.00 0.00 66 1018.5
20260506201226 79 258 3.0 3.0 0.00 0.00 0.00 69 1018.6
20260506200723 78 119 2.0 3.0 0.00 0.00 0.00 68 1018.9
20260506200220 78 268 0.0 0.0 0.00 0.00 0.00 70 1018.8
20260506195717 78 263 0.0 0.0 0.00 0.00 0.00 69 1018.8
20260506195213 78 153 3.0 3.0 0.00 0.00 0.00 68 1018.9
20260506194710 78 263 0.0 0.0 0.00 0.00 0.00 69 1018.9
20260506194207 78 243 3.0 3.0 0.00 0.00 0.00 69 1019.3
20260506193705 78 237 0.0 0.0 0.00 0.00 0.00 68 1019.6